Location: Jackson Park
(37.2862°N, 79.9123°W)
Time: 14:51:46
(UTC+00:00)

Vanguard 1 Rocket - Pass Details

Date: 12 May 2026
Orbit: 656 x 4211 km, 34.3° (Epoch: 8 June)

Event Time Altitude Azimuth Distance (km) Brightness Sun altitude
Rises 18:22:36 0° 194° (SSW) 3,679 10.8 66.0°
Reaches altitude 10° 18:25:32 10° 177° (S) 3,070 10.5 65.6°
Maximum altitude 18:31:06 21° 130° (SE) 2,984 10.3 64.9°
Drops below altitude 10° 18:39:24 10° 88° (E) 4,827 11.0 63.6°
Sets 18:45:43 0° 76° (ENE) 6,564 11.5 62.7°
